GOMX-4A (43197 NORAD) Tracking and Keplerian Element Data

This shows tracking and keplerian element data for the satellite.

Feedback or suggestion? Click here.




ElementValue
Catalog43197
NameGOMX-4A
Epoch Orbit35446
Epoch Day160.20042312
Epoch Year2024
RAAN338.0934
Inclination97.5952
Eccentricity0.000467
Argument of Perigee312.919
Mean Anonmoly47.1681
Mean Motion15.7427208
Decay Rate0.00139799
L11 43197U 18015F 24160.20042312 .00139799 00000+0 95954-3 0 9998
L22 43197 97.5952 338.0934 0004670 312.9190 47.1681 15.74272080354460



Live tracking and technical data element details for GOMX-4A (NORAD 43197). GOMX-4A can be tracked NOW for your location showing map with azimuth and elevation plus other details from your city location.







IsCatalogInMostPopularTable: catalog: 43197, numindb: 620
Update: records affected: 1



GetName: 43197 GOMX-4A

Hit Count: updated at: Fri, 14 Jun 2024 18:35:37 GMT